Weather in Pesochnoe

Russia / Samara Oblast     52°55′44″N   49°25′38″E
temp.,
°C
wind,
m/s
gust,
m/s
humid.,
%
clouds,
%
prec.,
mm/h
press.,
hPa
HPBL,
m
28 july, wed
wed2801:00+17nw33682 0.0 101532
04:00+16nnw228289 0.0 101515
07:00+19nnw24695 0.0 1016215
10:00+25nnw464132 0.1 10151790
13:00+27nnw663018 0.0 10142815
16:00+25nnw453569 0.0 10141112
19:00+25nnw35354 0.0 1014325
22:00+19ne23470 0.0 101521
29 july, thu
thu2901:00+16ese22510 0.0 101515
04:00+15ese225245 0.0 101411
07:00+18sse224598 0.0 1014107
10:00+25sw343992 0.0 1013794
13:00+25wsw4645100 0.0 1012863
16:00+24ssw4844100 0.0 1010591
19:00+22ssw7125893 0.1 1008496
22:00+19ssw3117298 0.4 1007223
30 july, fri
fri3001:00+18sw41184100 1.1 1006215
04:00+17w36944 1.1 1006117
07:00+19w388725 0.0 1007291
10:00+25nw565499 0.0 10081056
13:00+30wnw45365 0.0 10081974
16:00+32wsw562946 0.0 10072845
19:00+28n343977 0.0 1007115
22:00+24s224874 0.0 100723
31 july, sat
sat3101:00+22ssw335848 0.0 100739
04:00+21s35612 0.0 100683
07:00+22wsw1572100 1.0 1007157
10:00+28wsw464761 1.1 1006794
13:00+31wsw7940100 0.0 10061485
16:00+32wsw7838100 0.0 10061959
19:00+26n4860100 0.1 1007343
22:00+24wnw236199 0.1 100941
1 august, sun
sun101:00+20w22740 0.0 101011
04:00+19w22789 0.0 101115
07:00+23sw346016 0.0 1012149
10:00+29wsw453662 0.0 10121155
13:00+33wsw55245 0.0 10112885
16:00+34wsw65235 0.0 10103035
19:00+32sw56280 0.0 10111167
22:00+25wsw22420 0.0 101112